#timestamp,LO_Frequency,Hit,StdDev 
1456783215.7,286046994.9,P
1456783235.5,286046993.9,P
1456783255.4,286046993.4,Y
1456783275.2,286047001.1,P
1456783295.1,286046998.8,N
1456783296.0,286046998.8,N
1456783315.8,286046995.2,N
1456783335.6,286046996.4,N
1456783355.4,286046995.0,N
1456783375.3,286046994.3,N
1456783395.1,286046992.3,Y
1456783415.8,286046995.0,P
1456783435.7,286046995.9,P
1456783455.5,286046994.5,P
1456783475.4,286046990.2,Y
1456783495.2,286046994.5,P
1456783515.0,286046994.8,P
1456783515.9,286046994.8,P
1456783535.8,286046994.9,Y
1456783555.6,286046998.6,P
1456783575.4,286046996.6,N
1456783595.2,286046995.4,P
1456783615.1,286046995.7,Y
1456783616.0,286046995.7,P
1456783635.8,286046998.8,P
1456783655.7,286047001.1,N
1456783675.5,286046999.7,N
1456783695.3,286046998.2,N
1456783715.1,286046998.8,N
1456783735.9,286046995.3,N
1456783755.7,286046995.6,N
1456783775.5,286046997.5,N
1456783795.4,286046995.6,N
1456783815.2,286046994.2,Y
1456783835.0,286046996.6,P
1456783835.9,286046996.6,P
1456783855.8,286046998.3,P
1456783875.6,286046998.9,N
1456783895.4,286047000.0,N
1456783915.3,286046996.6,N
1456783935.1,286046999.1,N
1456783936.0,286046999.1,N
1456783955.8,286046997.5,N
1456783975.7,286046997.1,N
1456783995.5,286046998.5,N
1456784015.3,286046996.6,Y
1456784035.2,286046998.1,P
1456784055.9,286047002.2,P
1456784075.7,286047002.9,N
1456784095.6,286047004.6,N
1456784115.4,286047010.8,Y
1456784135.2,286047009.6,P
1456784155.1,286047010.0,N
1456784156.0,286047010.0,N
1456784175.8,286047011.4,Y
1456784195.6,286047005.4,P
1456784215.5,286047012.4,P
1456784235.3,286047012.4,P
1456784255.1,286047010.7,Y
1456784275.9,286047002.5,P
1456784295.7,286047002.8,N
1456784315.5,286046999.7,N
1456784335.4,286047000.0,N
1456784355.2,286047000.9,N
1456784375.0,286046999.7,N
1456784375.9,286046999.7,N
1456784395.8,286047002.3,N
1456784415.6,286046998.4,N
1456784435.4,286047000.2,N
1456784455.3,286046998.1,N
1456784475.1,286047000.8,N
1456784476.0,286047000.8,N
1456784495.8,286047002.4,N
1456784515.6,286047000.0,N
1456784535.5,286046998.2,N
1456784555.3,286046998.5,N
1456784575.1,286047002.1,N
1456784595.9,286047002.8,N
1456784615.7,286047003.5,N
1456784635.5,286047001.4,N
1456784655.4,286046999.8,N
1456784675.2,286047000.5,N
1456784695.0,286047002.0,N
1456784695.9,286047002.0,N
1456784715.8,286047001.9,N
1456784735.6,286047002.7,N
1456784755.4,286047002.8,N
1456784775.3,286047002.1,N
1456784795.1,286047003.4,N
1456784796.0,286047003.4,N
1456784815.8,286047002.0,N
1456784835.6,286047000.1,N
1456784855.5,286047002.6,N
1456784875.3,286047000.2,N
1456784895.1,286047002.5,N
1456784915.9,286047002.0,N
1456784935.7,286047000.4,N
1456784955.5,286046999.7,N
1456784975.4,286047002.5,N
1456784995.2,286047004.3,N
1456785015.0,286047001.7,N
1456785015.9,286047001.7,N
1456785035.8,286047001.8,N
1456785055.6,286047001.4,N
1456785075.4,286047002.8,N
1456785095.3,286047000.1,N
1456785115.1,286047004.2,Y
1456785135.8,286047000.3,P
1456785155.7,286046997.1,P
1456785175.5,286047001.2,N
1456785195.3,286046999.5,N
1456785215.2,286046998.1,N
1456785235.9,286046998.4,N
1456785255.7,286046996.5,N
1456785275.6,286046997.7,N
1456785295.4,286046999.1,N
1456785315.2,286046998.0,N
1456785335.0,286046996.7,N
1456785335.9,286046996.7,N
1456785355.8,286046997.1,N
1456785375.6,286046999.0,N
1456785395.4,286046996.8,N
1456785415.3,286047000.3,N
1456785435.1,286047000.4,N
1456785455.8,286046997.1,N
1456785475.7,286046999.4,N
1456785495.5,286046997.2,N
1456785515.3,286046998.0,N
1456785535.2,286046998.7,N
1456785555.9,286046996.8,N
1456785575.7,286046997.2,N
1456785595.5,286046997.7,N
1456785615.4,286046995.0,Y
1456785635.2,286046998.0,P
1456785655.0,286046997.3,P
1456785656.0,286046997.3,P
1456785675.8,286047001.0,N
1456785695.6,286046998.3,N
1456785715.4,286047002.2,N
1456785735.3,286046998.4,N
1456785755.1,286046997.4,N
1456785775.8,286046998.0,N
1456785795.7,286046995.3,Y
1456785815.5,286047000.2,P
1456785835.3,286046999.3,N
1456785855.2,286047002.6,P
1456785875.9,286047002.2,N
1456785895.7,286047000.0,N
1456785915.6,286047002.6,N
1456785935.4,286047001.5,N
1456785955.2,286047000.2,N
1456785975.1,286047004.4,Y
1456785976.0,286047004.4,P
1456785995.8,286047002.8,N
1456786015.6,286047000.4,N
1456786035.5,286047002.3,N
1456786055.3,286047001.3,N
1456786075.1,286047002.2,N
1456786095.9,286047002.5,N
1456786115.7,286047001.8,N
1456786135.5,286047003.4,Y
1456786155.4,286047000.0,P
1456786175.2,286046998.9,N
1456786195.0,286046998.5,N
1456786195.9,286046998.5,N
1456786215.7,286046996.8,N
1456786235.6,286046999.1,N
1456786255.4,286047001.1,N
1456786275.2,286046999.1,N
1456786295.1,286047000.8,N
1456786296.0,286047000.8,N
1456786315.8,286046999.7,N
1456786335.6,286047001.1,N
1456786355.5,286046998.1,N
1456786375.3,286046999.9,N
1456786395.1,286046998.9,N
1456786415.9,286046997.0,N
1456786435.7,286046998.4,N
1456786455.5,286047001.0,N
1456786475.4,286047001.9,N
1456786495.2,286047003.6,N
1456786515.0,286047002.0,N
1456786515.9,286047002.0,N
1456786535.7,286047000.5,N
1456786555.6,286046999.4,N
1456786575.4,286046997.1,N
1456786595.2,286046998.9,N
1456786615.1,286046996.6,N
1456786616.0,286046996.6,N
1456786635.8,286046999.4,N
1456786655.6,286046997.5,N
1456786675.5,286046994.0,Y
1456786695.3,286046996.8,P
1456786715.1,286046998.4,N
1456786735.9,286046999.0,N
1456786755.7,286046997.5,N
1456786775.5,286046995.2,Y
1456786795.4,286046998.5,P
